Regional Weather Roundup
Issued by NWS

Home | Current Version | Previous Version | Graphics & Text | Print | Product List | Glossary On
Versions: 1 2 3 4 5 6 7 8 9 10 11 12 13 14 15 16 17 18 19 20 21 22 23 24 25 26 27 28 29 30 31 32 33 34 35 36 37 38 39 40 41 42 43 44 45 46 47 48 49 50
000
ASUS43 KIND 262059
RWRIN

WEATHER ROUNDUP FOR INDIANA
NATIONAL WEATHER SERVICE INDIANAPOLIS IN
500 PM EDT TUE AUG 26 2014

NOTE: "FAIR" INDICATES FEW OR NO CLOUDS BELOW 12,000 FEET WITH NO
SIGNIFICANT WEATHER AND/OR OBSTRUCTIONS TO VISIBILITY.

* - STATION DOES NOT REPORT WEATHER SUCH AS PRECIPITATION OR FOG.

+ - STATION NOT QUALITY CONTROLLED BY THE NATIONAL WEATHER SERVICE.
    USE DATA WITH CAUTION...ESPECIALLY DEWPOINT AND RELATIVE
    HUMIDITY OBSERVATIONS.

INZ001>003-010>013-019-020-262200-
NORTHWEST INDIANA

CITY           SKY/WX    TMP DP  RH WIND       PRES   REMARKS
GARY /AIRPORT/ MOSUNNY   81  70  69 VRB5      30.09F
KNOX *+        CLOUDY    70  67  90 CALM      30.08S
MONTICELLO +   CLOUDY    70  67  89 CALM      30.10R
VALPARAISO     CLOUDY    75  69  81 S8        30.09S

$$

LMZ046-743>745-262200-
SOUTHERN LAKE MICHIGAN

STATION/POSITION TIME  TEMP WIND        PRES
                       AIR  DIR/SP/G
                 (UTC) (F)  (DEG/KT/KT) (MB)
MICHIGAN CITY    2000   72  140/  6/  9   N/A

$$

INZ004-005-014>016-021>024-262200-
NORTH CENTRAL INDIANA

CITY           SKY/WX    TMP DP  RH WIND       PRES   REMARKS
ELKHART        CLOUDY    72  70  94 CALM      30.07F
GOSHEN         CLOUDY    73  70  90 S3        30.06F FOG
SOUTH BEND     CLOUDY    74  69  85 SW5       30.08F
WARSAW +       CLOUDY    70  70 100 CALM      30.07F

$$

INZ006>009-017-018-025>027-262200-
NORTHEAST INDIANA

CITY           SKY/WX    TMP DP  RH WIND       PRES   REMARKS
ANGOLA *+      MOSUNNY   77  72  83 NW6       30.10F
FORT WAYNE     CLOUDY    79  69  71 NW5       30.08F

$$

INZ028-029-035-036-043>045-051>053-262200-
WEST CENTRAL INDIANA

CITY           SKY/WX    TMP DP  RH WIND       PRES   REMARKS
GREENCASTLE +  MOSUNNY   79  70  73 N24G31    30.14R
LAFAYETTE      LGT RAIN  70  69  97 SE5       30.09F
TERRE HAUTE    SUNNY     90  74  59 SE6       30.08S HX  99

$$

INZ030>032-037>040-046>048-054>057-064-065-262200-
CENTRAL INDIANA

CITY           SKY/WX    TMP DP  RH WIND       PRES   REMARKS
FRANKFORT +    TSTM     N/A N/A N/A S3        30.15F
INDIANAPOLIS   TSTM      80  68  66 N26G35    30.11R
-EAGLE CREEK   PTSUNNY   76  67  73 NW13G26   30.13R THUNDER
KOKOMO *+      CLOUDY    75  68  78 NW7       30.11F
MT COMFORT *+  MOSUNNY   86  64  48 NW17G23   30.12R
SHELBYVILLE    LGT RAIN  84  69  60 W3        30.09F

$$

INZ033-034-041-042-049-050-058-059-262200-
EAST CENTRAL INDIANA

CITY           SKY/WX    TMP DP  RH WIND       PRES   REMARKS
MUNCIE         PTSUNNY   82  68  62 N14       30.11F

$$

INZ060-061-067>069-081>083-085>088-262200-
SOUTHWEST INDIANA

CITY           SKY/WX    TMP DP  RH WIND       PRES   REMARKS
EVANSVILLE     MOSUNNY   94  70  45 VRB7      30.06F HX 100

$$

INZ062-063-066-070>080-084-089>092-262200-
SOUTH CENTRAL AND SOUTHEAST INDIANA

CITY           SKY/WX    TMP DP  RH WIND       PRES   REMARKS
BLOOMINGTON    MOSUNNY   91  73  55 N6        30.09S HX  99

$$



USA.gov is the U.S. government's official web portal to all federal, state and local government web resources and services.